Weather History for Blacksburg, VA

Change the Weather History Date:

Sunday, June 10, 2012

  Actual Average Record
Temperature  
Mean Temperature 68 °F 66 °F  
Max Temperature 81 °F 78 °F 90 °F (1953)
Min Temperature 55 °F 55 °F 42 °F (1977)
Degree Days  
Heating Degree Days 0 2  
Month to date heating degree days 36 24  
Since 1 June heating degree days 36 24  
Since 1 July heating degree days 4376 5432  
Cooling Degree Days 3 3  
Month to date cooling degree days 3 25  
Year to date cooling degree days 68 54  
Since 1 June cooling degree days 3 25  
Growing Degree Days 20 (Base 50)    
Moisture  
Dew Point 60 °F    
Average Humidity 72    
Maximum Humidity 100    
Minimum Humidity 43    
Precipitation  
Precipitation 0.00 in 0.13 in 1.45 in (1969)
Month to date precipitation 0.94 1.50  
Year to date precipitation 18.97 18.84  
Snow  
Snow 0.00 in - - ()
Month to date snowfall 0.0  
Since 1 June snowfall 0.0  
Since 1 July snowfall 10.0  
Snow Depth 0.00 in    
Sea Level Pressure  
Sea Level Pressure 30.19 in    
Wind  
Wind Speed 3 mph (SSE)    
Max Wind Speed 9 mph    
Max Gust Speed 16 mph    
Visibility 10 miles    
Events      
T = Trace of Precipitation, MM = Missing Value Source: NWS Daily Summary

Daily Weather History Graph

Daily Weather History Graph

Search for Another Location

Airport:

Trip Planner

Search our weather history database for the weather conditions in past years. The results will help you decide how hot, cold, wet, or windy it might be!

Date:

Astronomy

Jun. 10, 2012 Rise Set
Actual Time 6:00 AM EDT 8:41 PM EDT
Civil Twilight 5:30 AM EDT 9:12 PM EDT
Nautical Twilight 4:51 AM EDT 9:50 PM EDT
Astronomical Twilight 4:08 AM EDT 10:34 PM EDT
Moon 12:40 AM EDT (6/10) 12:39 PM EDT (6/10)
Length of Visible Light 15h 42m
Length of Day
14h 40m
Waning Gibbous, 58% of the Moon is Illuminated
Jun 10
Waning Gibbous
Jun 11
Last Quarter
Jun 19
New
Jun 26
First Quarter
Jul 3
Full

Hourly Weather History & Observations

Time (EDT) Temp. Heat Index Dew Point Humidity Pressure Visibility Wind Dir Wind Speed Gust Speed Precip Events Conditions
12:15 AM 62.6 °F - 60.8 °F 94% 30.16 in 10.0 mi Calm Calm - N/A   Clear
12:55 AM 62.6 °F - 60.8 °F 94% 30.16 in 10.0 mi Calm Calm - N/A   Clear
1:15 AM 62.6 °F - 60.8 °F 94% 30.15 in 10.0 mi Calm Calm - N/A   Clear
1:35 AM 60.8 °F - 60.8 °F 100% 30.15 in 10.0 mi Calm Calm - N/A   Clear
1:55 AM 60.8 °F - 60.8 °F 100% 30.15 in 10.0 mi Calm Calm - N/A   Clear
2:15 AM 60.8 °F - 60.8 °F 100% 30.15 in 10.0 mi Calm Calm - N/A   Clear
2:35 AM 60.8 °F - 60.8 °F 100% 30.15 in 10.0 mi Calm Calm - N/A   Clear
2:55 AM 60.8 °F - 60.8 °F 100% 30.14 in 10.0 mi Calm Calm - N/A   Clear
3:15 AM 59.0 °F - 59.0 °F 100% 30.15 in 10.0 mi Calm Calm - N/A   Clear
3:35 AM 60.8 °F - 60.8 °F 100% 30.15 in 10.0 mi Calm Calm - N/A   Clear
3:55 AM 59.0 °F - 59.0 °F 100% 30.15 in 10.0 mi Calm Calm - N/A   Clear
4:15 AM 59.0 °F - 59.0 °F 100% 30.15 in 7.0 mi Calm Calm - N/A   Clear
4:35 AM 59.0 °F - 59.0 °F 100% 30.15 in 10.0 mi Calm Calm - N/A   Clear
4:55 AM 57.2 °F - 57.2 °F 100% 30.16 in 10.0 mi Calm Calm - N/A   Clear
5:15 AM 57.2 °F - 57.2 °F 100% 30.16 in 7.0 mi Calm Calm - N/A   Clear
5:35 AM 57.2 °F - 57.2 °F 100% 30.16 in 7.0 mi Calm Calm - N/A   Clear
5:55 AM 57.2 °F - 57.2 °F 100% 30.17 in 7.0 mi Calm Calm - N/A   Clear
6:15 AM 57.2 °F - 57.2 °F 100% 30.17 in 5.0 mi Calm Calm - N/A   Clear
6:35 AM 59.0 °F - 59.0 °F 100% 30.18 in 5.0 mi Calm Calm - N/A   Clear
6:55 AM 60.8 °F - 60.8 °F 100% 30.18 in 7.0 mi Calm Calm - N/A   Clear
7:15 AM 60.8 °F - 60.8 °F 100% 30.19 in 7.0 mi Calm Calm - N/A   Clear
7:35 AM 64.4 °F - 64.4 °F 100% 30.19 in 10.0 mi Calm Calm - N/A   Clear
7:55 AM 64.4 °F - 62.6 °F 94% 30.20 in 7.0 mi Calm Calm - N/A   Clear
8:15 AM 66.2 °F - 64.4 °F 94% 30.20 in 10.0 mi Calm Calm - N/A   Clear
8:35 AM 68.0 °F - 64.4 °F 88% 30.21 in 10.0 mi Calm Calm - N/A   Clear
8:55 AM 69.8 °F - 64.4 °F 83% 30.21 in 10.0 mi Calm Calm - N/A   Clear
9:15 AM 71.6 °F - 64.4 °F 78% 30.21 in 10.0 mi Calm Calm - N/A   Clear
9:35 AM 73.4 °F - 64.4 °F 73% 30.22 in 10.0 mi Calm Calm - N/A   Clear
9:55 AM 73.4 °F - 64.4 °F 73% 30.21 in 10.0 mi Calm Calm - N/A   Clear
10:15 AM 73.4 °F - 66.2 °F 78% 30.21 in 10.0 mi Calm Calm - N/A   Clear
10:35 AM 77.0 °F - 66.2 °F 69% 30.21 in 10.0 mi Calm Calm - N/A   Clear
10:55 AM 78.8 °F - 66.2 °F 65% 30.21 in 10.0 mi Calm Calm - N/A   Clear
11:15 AM 78.8 °F - 62.6 °F 57% 30.21 in 10.0 mi South 5.8 mph - N/A   Clear
11:35 AM 80.6 °F 81.8 °F 62.6 °F 54% 30.21 in 10.0 mi SSE 4.6 mph - N/A   Clear
11:55 AM 78.8 °F - 62.6 °F 57% 30.21 in 10.0 mi SSW 4.6 mph - N/A   Scattered Clouds
12:15 PM 80.6 °F 81.8 °F 62.6 °F 54% 30.21 in 10.0 mi South 6.9 mph - N/A   Mostly Cloudy
12:35 PM 78.8 °F - 62.6 °F 57% 30.21 in 10.0 mi Calm Calm - N/A   Mostly Cloudy
12:55 PM 78.8 °F - 60.8 °F 54% 30.21 in 10.0 mi SW 3.5 mph - N/A   Mostly Cloudy
1:15 PM 80.6 °F 81.1 °F 59.0 °F 48% 30.21 in 10.0 mi South 5.8 mph - N/A   Mostly Cloudy
1:35 PM 80.6 °F 81.1 °F 59.0 °F 48% 30.20 in 10.0 mi SSE 4.6 mph - N/A   Mostly Cloudy
1:55 PM 80.6 °F 80.8 °F 57.2 °F 45% 30.20 in 10.0 mi SSE 6.9 mph 16.1 mph N/A   Mostly Cloudy
2:15 PM 82.4 °F 82.5 °F 59.0 °F 45% 30.20 in 10.0 mi South 6.9 mph - N/A   Scattered Clouds
2:35 PM 80.6 °F 80.8 °F 57.2 °F 45% 30.20 in 10.0 mi SSE 10.4 mph - N/A   Scattered Clouds
2:55 PM 82.4 °F 82.0 °F 57.2 °F 42% 30.20 in 10.0 mi SSE 8.1 mph - N/A   Scattered Clouds
3:15 PM 80.6 °F 80.5 °F 55.4 °F 42% 30.19 in 10.0 mi SSE 8.1 mph - N/A   Mostly Cloudy
3:35 PM 82.4 °F 81.7 °F 55.4 °F 39% 30.19 in 10.0 mi SE 6.9 mph - N/A   Scattered Clouds
3:55 PM 80.6 °F 81.5 °F 60.8 °F 51% 30.19 in 10.0 mi SSW 4.6 mph - N/A   Clear
4:15 PM 80.6 °F 81.5 °F 60.8 °F 51% 30.19 in 10.0 mi South 6.9 mph - N/A   Clear
4:35 PM 78.8 °F - 60.8 °F 54% 30.19 in 10.0 mi SW 5.8 mph - N/A   Mostly Cloudy
4:55 PM 80.6 °F 81.5 °F 60.8 °F 51% 30.19 in 10.0 mi South 6.9 mph - N/A   Mostly Cloudy
5:15 PM 78.8 °F - 60.8 °F 54% 30.20 in 10.0 mi South 8.1 mph - N/A   Mostly Cloudy
5:35 PM 78.8 °F - 60.8 °F 54% 30.20 in 10.0 mi SSE 9.2 mph - N/A   Scattered Clouds
5:55 PM 77.0 °F - 57.2 °F 50% 30.20 in 10.0 mi SSE 9.2 mph 16.1 mph N/A   Scattered Clouds
6:15 PM 77.0 °F - 57.2 °F 50% 30.20 in 10.0 mi SSE 5.8 mph - N/A   Clear
6:35 PM 75.2 °F - 55.4 °F 50% 30.21 in 10.0 mi South 8.1 mph - N/A   Clear
6:55 PM 75.2 °F - 57.2 °F 53% 30.21 in 10.0 mi South 6.9 mph - N/A   Clear
7:15 PM 75.2 °F - 55.4 °F 50% 30.22 in 10.0 mi South 9.2 mph - N/A   Clear
7:35 PM 73.4 °F - 57.2 °F 57% 30.22 in 10.0 mi SSE 4.6 mph - N/A   Clear
7:55 PM 73.4 °F - 57.2 °F 57% 30.21 in 10.0 mi SSE 4.6 mph - N/A   Clear
8:15 PM 73.4 °F - 57.2 °F 57% 30.21 in 10.0 mi SSE 5.8 mph - N/A   Clear
8:35 PM 71.6 °F - 57.2 °F 60% 30.22 in 10.0 mi South 4.6 mph - N/A   Clear
8:55 PM 71.6 °F - 60.8 °F 69% 30.22 in 10.0 mi SSE 3.5 mph - N/A   Mostly Cloudy
9:15 PM 71.6 °F - 60.8 °F 69% 30.22 in 10.0 mi SSE 3.5 mph - N/A   Mostly Cloudy
9:35 PM 69.8 °F - 60.8 °F 73% 30.23 in 10.0 mi Calm Calm - N/A   Scattered Clouds
9:55 PM 69.8 °F - 60.8 °F 73% 30.23 in 10.0 mi Calm Calm - N/A   Scattered Clouds
10:15 PM 66.2 °F - 60.8 °F 83% 30.23 in 10.0 mi Calm Calm - N/A   Clear
10:35 PM 66.2 °F - 60.8 °F 83% 30.23 in 10.0 mi Calm Calm - N/A   Mostly Cloudy
10:55 PM 66.2 °F - 60.8 °F 83% 30.24 in 10.0 mi ESE 3.5 mph - N/A   Mostly Cloudy
11:15 PM 69.8 °F - 60.8 °F 73% 30.24 in 10.0 mi Calm Calm - N/A   Scattered Clouds
11:35 PM 68.0 °F - 60.8 °F 78% 30.24 in 10.0 mi ESE 3.5 mph - N/A   Clear
11:55 PM 68.0 °F - 60.8 °F 78% 30.23 in 10.0 mi Calm Calm - N/A   Mostly Cloudy